sat.trackr.live / text

‹ back to catalog

ONEWEB-0297

NORAD 49086 · 2021-075M

PAYLOAD ACTIVE UNKNOWN

§ Identity

Operator
Country
UK
Launch date
2021-08-21
Launch site
TYMSC
Launch vehicle
Mass (kg)
RCS (m²)

Purposes: comms

External: N2YO · Heavens-Above · Gunter

§ Orbital elements

Epoch: 2026-09-20T04:18:45.940032Z

Period
109.72 min
Inclination
87.8977°
Eccentricity
0.0001854
Mean motion
13.12443036 rev/d
Perigee alt
1,212.3 km
Apogee alt
1,215.1 km
Semi-major
7,591.9 km
B*
1.1841e-3
RAAN
331.8125°
Arg perigee
102.6808°
Mean anomaly
257.4528°
Rev number
24,764

§ Raw data

ONEWEB-02971 49086U 21075M   26263.17969838  .00000439  00000+0  11841-2 0  99942 49086  87.8977 331.8125 0001854 102.6808 257.4528 13.12443036247644

JSON: /api/v1/satellites/49086 · /tle

For live sub-satellite position, see the globe view (requires WebGL).

§ Visibility from observer

Set your observer location to see the next 7 days of passes ≥ 10°. The values pass through the URL so the page stays shareable.

No JS? Fill the form by hand. The geolocation button needs JavaScript.